Location: Arthez
(43.0833°N, 0.2500°W)
Time: 08:22:05
(UTC+00:00)

Meteor 2-10 Rocket - Pass Details

Date: 23 October 2021
Orbit: 733 x 885 km, 81.2° (Epoch: 02 December)

Event Time Altitude Azimuth Distance (km) Brightness Sun altitude
Rises 17:51:16 0° 160° (SSE) 3,414 6.7 -9.0°
Reaches altitude 10° 17:53:59 10° 150° (SSE) 2,462 5.9 -9.5°
Maximum altitude 17:58:46 30° 91° (E) 1,429 4.4 -10.4°
Drops below altitude 10° 18:03:26 10° 31° (NNE) 2,389 5.7 -11.2°
Sets 18:06:01 0° 21° (NNE) 3,299 6.5 -11.7°
